Flag for France Weather past 2 weeks in Bordeaux, France

Now
54 °F

Overcast.


Feels Like: 49 °F
Forecast: 52 / 58 °F
Wind: 15 mph from West

Location: Bordeaux / Merignac

Current Time: Mar 28, 2015 at 8:43:22 PM

Latest Report: Mar 28, 2015 at 8:00 PM


Visibility: N/A

Pressure: 30.36 "Hg

Humidity: 88%

Dew point: 50 °F

Location of BordeauxLocation

Historic Weather in Bordeaux — Graph

°F

Bordeaux temperature yesterday

Maximum temperature yesterday: 59 °F (at 2:30 PM)
Minimum temperature yesterday: 48 °F (at 12:00 AM)
Average temperature yesterday: 52 °F

Past Weeks' High & Low Weather Summary

 TemperatureHumidityPressure
High64 °F (Mar 17, 3:00 PM)100% (Mar 14, 5:30 AM)30.36 "Hg (Mar 14, 5:30 AM)
Low34 °F (Mar 25, 5:30 AM)42% (Mar 17, 2:30 PM)29.74 "Hg (Mar 24, 6:30 AM)
Average49 °F76%30.07 "Hg
* Reported Mar 13 7:00 PM — Mar 28 7:30 PM, Bordeaux, Weather by CustomWeather, © 2015

Note: Actual official high and low records may vary slightly from our data, if they occured in-between our weather recording intervals... More about our weather records

Advertising

Bordeaux weather history for previous 24 hours

 ConditionsComfort  
Time TempWeatherWind HumidityBarometerVisibility
7:30 PM
Sat, Mar 28
54 °FMostly cloudy.12 mph88%30.33 "HgN/A
7:00 PM52 °FOvercast.10 mph94%30.33 "HgN/A
6:30 PM52 °FMostly cloudy.12 mph94%30.33 "HgN/A
6:00 PM54 °FDrizzle. Mostly cloudy.14 mph88%30.33 "Hg4 mi
5:30 PM54 °FLight rain. Mostly cloudy.15 mph88%30.33 "HgN/A
5:00 PM54 °FLight rain. Mostly cloudy.16 mph88%30.33 "HgN/A
4:30 PM55 °FMostly cloudy.17 mph77%30.33 "HgN/A
4:00 PM57 °FMostly cloudy.16 mph72%30.33 "HgN/A
3:30 PM55 °FMostly cloudy.20 mph77%30.33 "HgN/A
3:00 PM55 °FMostly cloudy.18 mph77%30.33 "HgN/A
2:30 PM54 °FMostly cloudy.15 mph88%30.36 "HgN/A
2:00 PM54 °FMostly cloudy.12 mph88%30.36 "HgN/A
1:30 PM55 °FMostly cloudy.16 mph88%30.36 "HgN/A
1:00 PM54 °FDrizzle. Mostly cloudy.15 mph88%30.36 "HgN/A
12:30 PM54 °FMostly cloudy.13 mph94%30.36 "HgN/A
12:00 PM54 °FMostly cloudy.12 mph94%30.36 "HgN/A
11:30 AM54 °FMostly cloudy.13 mph94%30.36 "HgN/A
11:00 AM54 °FDrizzle. Mostly cloudy.9 mph94%30.36 "Hg6 mi
10:30 AM54 °FDrizzle. Mostly cloudy.8 mph94%30.36 "HgN/A
10:00 AM54 °FDrizzle. Partly sunny.12 mph94%30.36 "Hg4 mi
9:30 AM52 °FDrizzle. Mostly cloudy.13 mph100%30.36 "Hg4 mi
9:00 AM54 °FLow clouds.10 mph94%30.36 "HgN/A
8:30 AM52 °FLow clouds.12 mph100%30.36 "HgN/A
8:00 AM52 °FDrizzle. Low clouds.10 mph100%30.36 "Hg4 mi
7:30 AM52 °FLow clouds.12 mph100%30.36 "HgN/A
7:00 AM52 °FDrizzle. Low clouds.9 mph100%30.33 "Hg5 mi
6:30 AM52 °FLow clouds.9 mph100%30.33 "Hg5 mi
6:00 AM52 °FFog.9 mph100%30.33 "Hg3 mi
5:30 AM52 °FLow clouds.9 mph100%30.33 "Hg4 mi
5:00 AM52 °FDrizzle. Fog.12 mph100%30.33 "Hg3 mi
4:30 AM54 °FLight rain. Fog.12 mph94%30.33 "Hg2 mi
4:00 AM54 °FLight rain. Low clouds.12 mph94%30.33 "HgN/A
3:30 AM54 °FDrizzle. Low clouds.12 mph94%30.33 "HgN/A
3:00 AM54 °FLight rain. Low clouds.13 mph94%30.33 "Hg5 mi
2:30 AM54 °FLow clouds.12 mph94%30.33 "HgN/A
2:00 AM54 °FDrizzle. Low clouds.12 mph94%30.33 "Hg4 mi
1:30 AM54 °FDrizzle. Fog.12 mph94%30.33 "Hg3 mi
1:00 AM52 °FDrizzle. Fog.9 mph100%30.36 "Hg3 mi
12:30 AM52 °FDrizzle. Fog.8 mph100%30.36 "Hg2 mi
12:00 AM52 °FDrizzle. Fog.8 mph100%30.36 "Hg2 mi
11:30 PM
Fri, Mar 27
54 °FFog.9 mph94%30.36 "Hg2 mi
11:00 PM54 °FLow clouds.12 mph94%30.33 "Hg5 mi
10:30 PM54 °FLow clouds.13 mph94%30.33 "Hg5 mi
10:00 PM52 °FLow clouds.10 mph100%30.33 "Hg4 mi
9:30 PM52 °FDrizzle. Low clouds.9 mph94%30.33 "Hg4 mi
9:00 PM50 °FLow clouds.8 mph100%30.33 "HgN/A
8:30 PM50 °FDrizzle. Fog.8 mph94%30.33 "Hg3 mi
8:00 PM50 °FLow clouds.9 mph94%30.33 "Hg4 mi
Weather by CustomWeather, © 2015

See weather overviewHow to use our weather pages